Regional Weather Roundup
Issued by NWS

Home | Current Version | Previous Version | Graphics & Text | Print | Product List | Glossary On
Versions: 1 2 3 4 5 6 7 8 9 10 11 12 13 14 15 16 17 18 19 20 21 22 23 24 25 26 27 28 29 30 31 32 33 34 35 36 37 38 39 40 41 42 43 44 45 46 47 48 49 50
000
ASUS43 KMPX 032110
RWRMN
WEATHER ROUNDUP FOR MINNESOTA
NATIONAL WEATHER SERVICE TWIN CITIES/CHANHASSEN MN
400 PM CDT MON AUG 03 2015


NOTE: "FAIR" INDICATES FEW OR NO CLOUDS BELOW 12,000 FEET WITH NO
SIGNIFICANT WEATHER AND/OR OBSTRUCTIONS TO VISIBILITY. N/A MEANS
CURRENT SKY AND/OR WEATHER CONDITIONS ARE NOT AVAILABLE.

MNZ060>063-068>070-032200-
   Twin Cities Metro

CITY           SKY/WX    TMP DP  RH WIND       PRES   REMARKS
TWIN CITIES    MOSUNNY   79  47  32 W16G22    29.90S
ST PAUL        MOSUNNY   78  48  34 W14G23    29.89S
CRYSTAL        MOSUNNY   80  48  32 NW15G21   29.88F
BLAINE         PTSUNNY   79  48  34 W14G23      N/A
LAKEVILLE      SUNNY     75  52  43 W7        29.91S
EDEN PRAIRIE   MOSUNNY   79  48  33 W13G23    29.89F
SOUTH ST PAUL  MOSUNNY   78  46  32 W10       29.89S
LAKE ELMO      FAIR      75  52  43 NW10G16   29.90S
$$
MNZ001>005-007-008-013>017-022>024-027-028-032200-
   Northwest Minnesota

CITY           SKY/WX    TMP DP  RH WIND       PRES   REMARKS
BEMIDJI        PTSUNNY   72  52  49 NW18G29   29.90F
HALLOCK        MOSUNNY   75  46  35 NW15G22   29.91S
ROSEAU         MOSUNNY   72  54  53 N13G18    29.90S
WARROAD        MOSUNNY   68  54  60 NW15G22   29.90S
THIEF RVR FALL MOSUNNY   72  48  43 NW15G23   29.93S
CROOKSTON      SUNNY     75  48  38 NW17G26   29.93S
FOSSTON        MOSUNNY   75  48  38 NW12G21   29.93S
DETROIT LAKES  SUNNY     73  46  38 NW17      29.95S
MOORHEAD       SUNNY     75  52  43 NW12      29.93F
PARK RAPIDS    MOSUNNY   73  50  44 NW14G24   29.91S
MAHNOMEN       FAIR      72  52  49 NW13      29.92F
$$
MNZ006-009>011-018-025>026-032200-
   North Central Minnesota

CITY           SKY/WX    TMP DP  RH WIND       PRES   REMARKS
BAUDETTE       CLOUDY    67  52  58 NW21G28   29.89R
FLAG ISLAND    CLOUDY    64  54  68 NW17      29.87S
INTL FALLS     LGT RAIN  60  57  89 NW15G22   29.86R
WASKISH        CLOUDY    66  54  63 W14       29.90S
BIG FORK       MOSUNNY   66  54  63 W8        29.88S
LONGVILLE      CLOUDY    72  54  53 NW12      29.90S
GRAND RAPIDS   CLOUDY    68  52  56 NW14G20   29.89S
CRANE LAKE     CLOUDY    61  55  82 NW3       29.86R
ORR            CLOUDY    64  52  63 NW12      29.84R
COOK           PTSUNNY   66  54  63 NW9G18    29.85S
WALKER         CLOUDY    69  52  54 W12G17    29.90S
$$
MNZ012-019>021-037-032200-
   Northeast Minnesota

CITY           SKY/WX    TMP DP  RH WIND       PRES   REMARKS
DULUTH         PTSUNNY   69  51  52 W16       29.85S
ELY            RAIN      61  55  82 W8        29.84R
HIBBING        CLOUDY    68  52  56 W16G23    29.86S
EVELETH        MOSUNNY   64  50  59 W15G21    29.86S
DULUTH HARBOR  CLOUDY    72  55  56 W21       29.84F
TWO HARBORS    CLOUDY    72  57  60 W9        29.82S
SILVER BAY     LGT RAIN  70  55  60 W7        29.82S
GRAND MARAIS     N/A     74  53  48 NW8       29.75S
G MARAIS ARPRT   N/A     64  48  55 W8        29.81R
$$
MNZ029>031-032-039>041-046>048-054>057-064-032200-
   West Central Minnesota

CITY           SKY/WX    TMP DP  RH WIND       PRES   REMARKS
FERGUS FALLS   SUNNY     75  48  38 N10G22    29.92S
WHEATON        SUNNY     75  50  41 NW14      29.95F
MORRIS         SUNNY     79  52  38 NW16      29.93S
ALEXANDRIA     SUNNY     76  49  38 NW15G21   29.95R
ELBOW LAKE     FAIR      76  50  40 NW12G17   29.93F
WADENA         SUNNY     75  48  38 NW15G23   29.92S
GLENWOOD       SUNNY     75  50  41 W15G23    29.94S
APPLETON       SUNNY     79  46  31 NW13      29.93F
BENSON         MOSUNNY   79  48  34 NW13      29.93F
ORTONVILLE     SUNNY     79  48  34 W10       29.94F
MADISON        SUNNY     79  50  36 N9        29.94F
WILLMAR        FAIR      79  50  36 NW16G22   29.95S
$$
MNZ033>034-036-042>043-049>051-058-059-032200-
   Central Minnesota

CITY           SKY/WX    TMP DP  RH WIND       PRES   REMARKS
ST CLOUD       PTSUNNY   78  48  34 NW12      29.89F
SAUK CENTRE    FAIR      76  51  41 W12G24    29.92S
PAYNESVILLE    MOSUNNY   74  49  40 W12       29.93S
AITKIN         CLOUDY    73  54  49 NW6       29.87S
PINE RIVER     PTSUNNY   72  52  49 NW13      29.93S
BRAINERD       CLOUDY    75  48  38 NW12      29.89F
STAPLES        MOSUNNY   75  46  35 NW14      29.91R
LONG PRAIRIE   FAIR      75  50  41 NW14      29.92F
LITTLE FALLS     N/A     77  43  29 W16       29.90S
LITCHFIELD     SUNNY     77  52  41 W10G18    29.93S
BUFFALO        MOSUNNY   78  49  36 W10       29.91F
MAPLE LAKE     MOSUNNY   77  54  44 W6        29.91F
$$
MNZ037-044-045-052-053-032200-
   East Central Minnesota

CITY           SKY/WX    TMP DP  RH WIND       PRES   REMARKS
PRINCETON      MOSUNNY   79  48  34 W12       29.89F
MORA           PTSUNNY   73  50  43 NW9       29.90S
CAMBRIDGE      MOSUNNY   79  55  44 W8        29.87F
RUSH CITY      PTSUNNY   73  51  44 NW7       29.88F
MOOSE LAKE     CLOUDY    72  52  49 W9        29.86S
HINCKLEY       CLOUDY    73  52  46 NW8       29.88S
CLOQUET        CLOUDY    70  52  52 NW10      29.87S
MCGREGOR       CLOUDY    72  52  49 NW14      29.88F
$$
MNZ071>073-080-081-089-090-097-098-032200-
   Southwest Minnesota

CITY           SKY/WX    TMP DP  RH WIND       PRES   REMARKS
MONTEVIDEO     SUNNY     82  54  36 N13       29.96S
GRANITE FALLS  SUNNY     78  52  40 W9        29.95F
CANBY          SUNNY     80  52  38 W10G16    29.95F
MARSHALL       MOSUNNY   79  52  38 NW8       29.96F
REDWOOD FALLS  SUNNY     81  49  32 W17       29.93F
OLIVIA         SUNNY     73  48  40 NW13G21   29.93F
PIPESTONE      SUNNY     79  52  38 NW9       29.98S
WINDOM         SUNNY     79  54  41 NW8       29.96F
WORTHINGTON    PTSUNNY   79  54  41 W10       29.98S
JACKSON        MOSUNNY   79  54  41 NW8       29.97S
TRACY          MOSUNNY   77  57  50 NW7       29.96F
SLAYTON        MOSUNNY   79  53  40 NW10      29.98F
$$
MNZ065>067-074>077-082>085-091>093-032200-
   South Central Minnesota

CITY           SKY/WX    TMP DP  RH WIND       PRES   REMARKS
MANKATO        SUNNY     77  48  36 NW14      29.92F
NEW ULM        SUNNY     79  48  34 NW14G22   29.92F
FAIRMONT       SUNNY     79  52  38 NW16      29.95S
GLENCOE        SUNNY     78  51  39 W16       29.92S
FARIBAULT      SUNNY     77  52  41 W13       29.92F
OWATONNA       SUNNY     77  50  38 W13G18    29.92F
WASECA         SUNNY     77  54  44 W12       29.94F
ALBERT LEA     SUNNY     79  54  41 NW6       29.93F
$$
MNZ078>079-086>088-094>096-032200-
   Southeast Minnesota

CITY           SKY/WX    TMP DP  RH WIND       PRES   REMARKS
ROCHESTER      SUNNY     75  54  47 NW10      29.93S
RED WING       SUNNY     79  46  31 NW10G16   29.88S
STANTON        MOSUNNY   77  52  41 W12       29.90S
DODGE CENTER   MOSUNNY   75  48  38 W17G24    29.93S
WINONA         SUNNY     77  50  38 NW9       29.89S
AUSTIN         SUNNY     79  52  38 NW12G18   29.93S
PRESTON        SUNNY     74  52  44 NW12      29.93S
$$
ABBREVIATIONS USED IN REMARKS
   TC - TEMPERATURES IN CELSIUS
  WCI - WIND CHILL INDEX
   HX - HEAT INDEX
  VSB - VISIBILITY
$$



USA.gov is the U.S. government's official web portal to all federal, state and local government web resources and services.